Time,TemperatureF,DewpointF,PressureIn,WindDirection,WindDirectionDegrees,WindSpeedMPH,WindSpeedGustMPH,Humidity,HourlyPrecipIn,Conditions,Clouds,dailyrainin,SoftwareType,DateUTC
2013-05-27 00:03:00,44.4,38.9,30.15,North,0,0.0,-999.0,81,-99.99,,,0.00,Acu-Link.com,2013-05-27 04:03:00,
2013-05-27 00:18:00,44.2,38.7,30.15,North,0,0.0,-999.0,81,-99.99,,,0.00,Acu-Link.com,2013-05-27 04:18:00,
2013-05-27 00:34:00,44.2,38.7,30.16,NNW,337,0.0,-999.0,81,-99.99,,,0.00,Acu-Link.com,2013-05-27 04:34:00,
2013-05-27 00:49:00,43.9,38.8,30.16,NNW,337,0.0,-999.0,82,-99.99,,,0.00,Acu-Link.com,2013-05-27 04:49:00,
2013-05-27 01:04:00,43.9,38.8,30.16,SSW,202,0.0,-999.0,82,-99.99,,,0.00,Acu-Link.com,2013-05-27 05:04:00,
2013-05-27 01:19:00,43.3,38.2,30.16,SSW,202,0.0,-999.0,82,-99.99,,,0.00,Acu-Link.com,2013-05-27 05:19:00,
2013-05-27 01:34:00,43.3,38.2,30.16,SSW,202,0.0,-999.0,82,-99.99,,,0.00,Acu-Link.com,2013-05-27 05:34:00,
2013-05-27 01:50:00,42.8,37.1,30.17,SSW,202,0.0,-999.0,80,-99.99,,,0.00,Acu-Link.com,2013-05-27 05:50:00,
2013-05-27 02:05:00,43.0,36.9,30.17,SSW,202,0.0,-999.0,79,-99.99,,,0.00,Acu-Link.com,2013-05-27 06:05:00,
2013-05-27 02:20:00,42.8,36.4,30.17,SSW,202,0.0,-999.0,78,-99.99,,,0.00,Acu-Link.com,2013-05-27 06:20:00,
2013-05-27 02:36:00,43.0,37.3,30.17,SSW,202,0.0,-999.0,80,-99.99,,,0.00,Acu-Link.com,2013-05-27 06:36:00,
2013-05-27 02:51:00,42.8,37.4,30.17,SSW,202,0.0,-999.0,81,-99.99,,,0.00,Acu-Link.com,2013-05-27 06:51:00,
2013-05-27 03:06:00,42.3,36.9,30.18,South,180,0.0,-999.0,81,-99.99,,,0.00,Acu-Link.com,2013-05-27 07:06:00,
2013-05-27 03:22:00,42.1,36.4,30.18,South,180,0.0,-999.0,80,-99.99,,,0.00,Acu-Link.com,2013-05-27 07:22:00,
2013-05-27 03:37:00,42.3,36.9,30.18,South,180,0.0,-999.0,81,-99.99,,,0.00,Acu-Link.com,2013-05-27 07:37:00,
2013-05-27 03:52:00,41.9,36.2,30.18,SE,135,0.0,-999.0,80,-99.99,,,0.00,Acu-Link.com,2013-05-27 07:52:00,
2013-05-27 04:08:00,42.6,37.2,30.18,North,0,0.0,-999.0,81,-99.99,,,0.00,Acu-Link.com,2013-05-27 08:08:00,
2013-05-27 04:23:00,42.6,37.2,30.19,North,0,0.0,-999.0,81,-99.99,,,0.00,Acu-Link.com,2013-05-27 08:23:00,
2013-05-27 04:38:00,42.1,36.7,30.19,NNW,337,0.0,-999.0,81,-99.99,,,0.00,Acu-Link.com,2013-05-27 08:38:00,
2013-05-27 04:54:00,41.4,36.3,30.18,ESE,112,0.0,-999.0,82,-99.99,,,0.00,Acu-Link.com,2013-05-27 08:54:00,
2013-05-27 05:09:00,41.0,35.9,30.18,ESE,112,0.0,-999.0,82,-99.99,,,0.00,Acu-Link.com,2013-05-27 09:09:00,
2013-05-27 05:24:00,41.0,36.5,30.18,ESE,112,0.0,-999.0,84,-99.99,,,0.00,Acu-Link.com,2013-05-27 09:24:00,
2013-05-27 05:39:00,40.5,36.1,30.18,ESE,112,0.0,-999.0,84,-99.99,,,0.00,Acu-Link.com,2013-05-27 09:39:00,
2013-05-27 05:54:00,40.1,36.0,30.18,ESE,112,0.0,-999.0,85,-99.99,,,0.00,Acu-Link.com,2013-05-27 09:54:00,
2013-05-27 06:09:00,40.1,36.0,30.19,ESE,112,0.0,-999.0,85,-99.99,,,0.00,Acu-Link.com,2013-05-27 10:09:00,
2013-05-27 06:25:00,40.8,36.6,30.19,ESE,112,0.0,-999.0,85,-99.99,,,0.00,Acu-Link.com,2013-05-27 10:25:00,
2013-05-27 06:40:00,41.2,37.6,30.20,ESE,112,0.0,-999.0,87,-99.99,,,0.00,Acu-Link.com,2013-05-27 10:40:00,
2013-05-27 06:55:00,41.7,38.1,30.19,ESE,112,0.0,-999.0,87,-99.99,,,0.00,Acu-Link.com,2013-05-27 10:55:00,
2013-05-27 07:10:00,43.7,40.4,30.20,ESE,112,0.0,-999.0,88,-99.99,,,0.00,Acu-Link.com,2013-05-27 11:10:00,
2013-05-27 07:25:00,44.6,41.6,30.20,ESE,112,0.0,-999.0,89,-99.99,,,0.00,Acu-Link.com,2013-05-27 11:25:00,
2013-05-27 07:41:00,46.8,44.3,30.20,ESE,112,0.0,-999.0,91,-99.99,,,0.00,Acu-Link.com,2013-05-27 11:41:00,
2013-05-27 07:56:00,48.6,46.4,30.21,South,180,0.0,-999.0,92,-99.99,,,0.00,Acu-Link.com,2013-05-27 11:56:00,
2013-05-27 08:11:00,49.5,47.3,30.20,SW,225,0.0,-999.0,92,-99.99,,,0.00,Acu-Link.com,2013-05-27 12:11:00,
2013-05-27 08:26:00,51.3,48.2,30.20,ESE,112,0.0,-999.0,89,-99.99,,,0.00,Acu-Link.com,2013-05-27 12:26:00,
2013-05-27 08:42:00,53.4,46.0,30.20,NNW,337,0.0,-999.0,76,-99.99,,,0.00,Acu-Link.com,2013-05-27 12:42:00,
2013-05-27 08:57:00,59.0,53.2,30.20,WSW,247,0.0,-999.0,81,-99.99,,,0.00,Acu-Link.com,2013-05-27 12:57:00,
2013-05-27 09:12:00,60.4,49.0,30.21,NE,45,0.0,-999.0,66,-99.99,,,0.00,Acu-Link.com,2013-05-27 13:12:00,
2013-05-27 09:28:00,62.4,47.4,30.20,NE,45,0.0,-999.0,58,-99.99,,,0.00,Acu-Link.com,2013-05-27 13:28:00,
2013-05-27 09:43:00,63.7,46.7,30.20,NW,315,2.2,-999.0,54,-99.99,,,0.00,Acu-Link.com,2013-05-27 13:43:00,
2013-05-27 09:58:00,64.4,46.4,30.19,NNW,337,0.0,-999.0,52,-99.99,,,0.00,Acu-Link.com,2013-05-27 13:58:00,
2013-05-27 10:14:00,66.7,46.4,30.18,East,90,2.7,-999.0,48,-99.99,,,0.00,Acu-Link.com,2013-05-27 14:14:00,
2013-05-27 10:29:00,66.6,46.8,30.18,NW,315,1.1,-999.0,49,-99.99,,,0.00,Acu-Link.com,2013-05-27 14:29:00,
2013-05-27 10:44:00,66.7,47.5,30.17,NNW,337,2.2,-999.0,50,-99.99,,,0.00,Acu-Link.com,2013-05-27 14:44:00,
2013-05-27 10:59:00,67.3,48.0,30.18,South,180,0.0,-999.0,50,-99.99,,,0.00,Acu-Link.com,2013-05-27 14:59:00,
2013-05-27 11:14:00,68.7,48.8,30.18,NW,315,0.0,-999.0,49,-99.99,,,0.00,Acu-Link.com,2013-05-27 15:14:00,
2013-05-27 11:29:00,68.5,48.0,30.17,NNE,22,2.2,-999.0,48,-99.99,,,0.00,Acu-Link.com,2013-05-27 15:29:00,
2013-05-27 11:45:00,68.7,48.8,30.17,East,90,0.0,-999.0,49,-99.99,,,0.00,Acu-Link.com,2013-05-27 15:45:00,
2013-05-27 12:00:00,68.9,47.3,30.16,SE,135,0.0,-999.0,46,-99.99,,,0.00,Acu-Link.com,2013-05-27 16:00:00,
2013-05-27 12:15:00,69.6,47.3,30.16,SE,135,1.7,-999.0,45,-99.99,,,0.00,Acu-Link.com,2013-05-27 16:15:00,
2013-05-27 12:30:00,68.9,46.7,30.15,South,180,3.2,-999.0,45,-99.99,,,0.00,Acu-Link.com,2013-05-27 16:30:00,
2013-05-27 12:45:00,69.1,46.9,30.15,South,180,1.1,-999.0,45,-99.99,,,0.00,Acu-Link.com,2013-05-27 16:45:00,
2013-05-27 13:01:00,70.2,48.4,30.14,West,270,2.2,-999.0,46,-99.99,,,0.00,Acu-Link.com,2013-05-27 17:01:00,
2013-05-27 13:16:00,71.8,47.5,30.13,North,0,4.2,-999.0,42,-99.99,,,0.00,Acu-Link.com,2013-05-27 17:16:00,
2013-05-27 13:32:00,71.6,46.0,30.13,NNW,337,2.2,-999.0,40,-99.99,,,0.00,Acu-Link.com,2013-05-27 17:32:00,
2013-05-27 13:47:00,71.6,47.3,30.11,SSE,157,3.2,-999.0,42,-99.99,,,0.00,Acu-Link.com,2013-05-27 17:47:00,
2013-05-27 14:02:00,72.7,47.6,30.10,South,180,2.7,-999.0,41,-99.99,,,0.00,Acu-Link.com,2013-05-27 18:02:00,
2013-05-27 14:18:00,72.9,49.7,30.10,ESE,112,2.2,-999.0,44,-99.99,,,0.00,Acu-Link.com,2013-05-27 18:18:00,
2013-05-27 14:33:00,73.4,50.8,30.09,SW,225,0.0,-999.0,45,-99.99,,,0.00,Acu-Link.com,2013-05-27 18:33:00,
2013-05-27 14:48:00,74.5,48.6,30.09,ESE,112,2.2,-999.0,40,-99.99,,,0.00,Acu-Link.com,2013-05-27 18:48:00,
2013-05-27 15:03:00,73.0,47.2,30.09,South,180,2.7,-999.0,40,-99.99,,,0.00,Acu-Link.com,2013-05-27 19:03:00,
2013-05-27 15:19:00,74.8,47.5,30.08,WNW,292,2.2,-999.0,38,-99.99,,,0.00,Acu-Link.com,2013-05-27 19:19:00,
2013-05-27 15:34:00,74.3,47.0,30.09,West,270,0.0,-999.0,38,-99.99,,,0.00,Acu-Link.com,2013-05-27 19:34:00,
2013-05-27 15:49:00,73.2,45.4,30.10,West,270,0.0,-999.0,37,-99.99,,,0.00,Acu-Link.com,2013-05-27 19:49:00,
2013-05-27 16:04:00,74.1,47.5,30.09,West,270,0.0,-999.0,39,-99.99,,,0.00,Acu-Link.com,2013-05-27 20:04:00,
2013-05-27 16:20:00,74.7,46.7,30.07,ESE,112,0.0,-999.0,37,-99.99,,,0.00,Acu-Link.com,2013-05-27 20:20:00,
2013-05-27 16:35:00,73.4,44.1,30.07,South,180,1.1,-999.0,35,-99.99,,,0.00,Acu-Link.com,2013-05-27 20:35:00,
2013-05-27 16:50:00,74.5,45.8,30.07,SW,225,0.0,-999.0,36,-99.99,,,0.00,Acu-Link.com,2013-05-27 20:50:00,
2013-05-27 17:06:00,72.5,45.4,30.07,NNW,337,0.0,-999.0,38,-99.99,,,0.00,Acu-Link.com,2013-05-27 21:06:00,
2013-05-27 17:21:00,73.2,45.4,30.06,South,180,0.0,-999.0,37,-99.99,,,0.00,Acu-Link.com,2013-05-27 21:21:00,
2013-05-27 17:36:00,75.2,44.9,30.05,North,0,0.0,-999.0,34,-99.99,,,0.00,Acu-Link.com,2013-05-27 21:36:00,
2013-05-27 17:51:00,74.1,43.1,30.05,West,270,0.0,-999.0,33,-99.99,,,0.00,Acu-Link.com,2013-05-27 21:51:00,
2013-05-27 18:07:00,73.4,44.1,30.05,SSW,202,0.0,-999.0,35,-99.99,,,0.00,Acu-Link.com,2013-05-27 22:07:00,
2013-05-27 18:22:00,73.9,44.5,30.05,NNE,22,0.0,-999.0,35,-99.99,,,0.00,Acu-Link.com,2013-05-27 22:22:00,
2013-05-27 18:37:00,72.7,44.2,30.05,SSE,157,0.0,-999.0,36,-99.99,,,0.00,Acu-Link.com,2013-05-27 22:37:00,
2013-05-27 18:53:00,72.3,42.3,30.05,WNW,292,0.0,-999.0,34,-99.99,,,0.00,Acu-Link.com,2013-05-27 22:53:00,
2013-05-27 19:08:00,70.0,42.5,30.04,South,180,0.0,-999.0,37,-99.99,,,0.00,Acu-Link.com,2013-05-27 23:08:00,
2013-05-27 19:23:00,69.1,44.4,30.05,South,180,0.0,-999.0,41,-99.99,,,0.00,Acu-Link.com,2013-05-27 23:23:00,
2013-05-27 19:38:00,67.8,43.2,30.04,SSW,202,0.0,-999.0,41,-99.99,,,0.00,Acu-Link.com,2013-05-27 23:38:00,
2013-05-27 19:54:00,66.7,45.8,30.04,ESE,112,0.0,-999.0,47,-99.99,,,0.00,Acu-Link.com,2013-05-27 23:54:00,
2013-05-27 20:09:00,65.1,45.5,30.04,SSE,157,0.0,-999.0,49,-99.99,,,0.00,Acu-Link.com,2013-05-28 00:09:00,
2013-05-27 20:24:00,63.1,44.2,30.04,SSE,157,0.0,-999.0,50,-99.99,,,0.00,Acu-Link.com,2013-05-28 00:24:00,
2013-05-27 20:40:00,61.2,43.4,30.03,SE,135,0.0,-999.0,52,-99.99,,,0.00,Acu-Link.com,2013-05-28 00:40:00,
2013-05-27 20:55:00,59.5,43.3,30.03,SE,135,0.0,-999.0,55,-99.99,,,0.00,Acu-Link.com,2013-05-28 00:55:00,
2013-05-27 21:10:00,58.5,44.7,30.03,SE,135,0.0,-999.0,60,-99.99,,,0.00,Acu-Link.com,2013-05-28 01:10:00,
2013-05-27 21:25:00,57.6,45.1,30.03,SE,135,0.0,-999.0,63,-99.99,,,0.00,Acu-Link.com,2013-05-28 01:25:00,
2013-05-27 21:41:00,56.8,44.3,30.04,SE,135,0.0,-999.0,63,-99.99,,,0.00,Acu-Link.com,2013-05-28 01:41:00,
2013-05-27 21:56:00,56.1,44.1,30.04,SE,135,0.0,-999.0,64,-99.99,,,0.00,Acu-Link.com,2013-05-28 01:56:00,
2013-05-27 22:11:00,55.8,45.4,30.05,SE,135,0.0,-999.0,68,-99.99,,,0.00,Acu-Link.com,2013-05-28 02:11:00,
2013-05-27 22:27:00,55.2,46.3,30.04,SSE,157,0.0,-999.0,72,-99.99,,,0.00,Acu-Link.com,2013-05-28 02:27:00,
2013-05-27 22:42:00,54.9,45.7,30.04,SSE,157,0.0,-999.0,71,-99.99,,,0.00,Acu-Link.com,2013-05-28 02:42:00,
2013-05-27 22:57:00,54.3,45.5,30.05,SSE,157,0.0,-999.0,72,-99.99,,,0.00,Acu-Link.com,2013-05-28 02:57:00,
2013-05-27 23:12:00,54.1,44.5,30.06,SSE,157,0.0,-999.0,70,-99.99,,,0.00,Acu-Link.com,2013-05-28 03:12:00,
2013-05-27 23:28:00,54.0,44.1,30.06,SSE,157,0.0,-999.0,69,-99.99,,,0.00,Acu-Link.com,2013-05-28 03:28:00,
2013-05-27 23:43:00,53.4,44.2,30.06,SSE,157,0.0,-999.0,71,-99.99,,,0.00,Acu-Link.com,2013-05-28 03:43:00,
2013-05-27 23:58:00,53.1,43.9,30.07,SSE,157,0.0,-999.0,71,-99.99,,,0.00,Acu-Link.com,2013-05-28 03:58:00,